Location: Bottenau
(48.5138°N, 8.0462°E)
Time: 04:02:34
(UTC+00:00)

S3M - Pass Details

Date: 18 April 2021
Orbit: 949 x 1004 km, 83.0° (Epoch: 09 May)

Event Time Altitude Azimuth Distance (km) Brightness Sun altitude
Exits shadow 22:08:53 66° 106° (ESE) 1,094 4.0 -27.9°
Maximum altitude 22:09:07 66° 94° (E) 1,090 4.0 -27.9°
Drops below altitude 10° 22:15:28 10° 14° (NNE) 2,790 7.1 -28.3°
Sets 22:18:01 0° 12° (NNE) 3,743 7.9 -28.4°
